FW8715 Weather Reports


Display with metric or nautical units.
time (UTC)temp
F
wind
direction
speed
MPH
gust
MPH
rain 1hr
in
rain 24hr
in
rain mn
in
humidity
%
barometer
mb
20260504225605 53 178 0.0 0.0 0.02 0.02 0.38 93 1013.8
20260504222604 54 66 0.0 0.0 0.00 0.00 0.36 91 1013.8
20260504215605 54 66 0.0 0.0 0.00 0.36 0.36 91 1013.8
20260504212606 54 72 0.0 0.0 0.00 0.36 0.36 91 1013.8
20260504205604 54 71 0.0 0.0 0.00 0.36 0.36 90 1013.8
20260504202606 54 126 0.0 0.0 0.00 0.36 0.36 87 1013.8
20260504195604 55 188 0.0 0.0 0.00 0.36 0.36 86 1013.5
20260504192604 55 72 0.0 0.0 0.00 0.36 0.36 85 1013.8
20260504185606 56 186 1.0 1.0 0.00 0.36 0.36 85 1013.8
20260504182604 56 244 0.0 0.0 0.00 0.36 0.36 86 1013.8
20260504175604 57 167 1.0 1.0 0.00 0.36 0.36 83 1013.8
20260504172606 58 179 3.0 3.0 0.00 0.36 0.36 82 1014.2
20260504045606 50 96 0.0 0.0 0.02 0.28 0.28 94 1015.2
20260504042605 50 78 0.0 0.0 0.08 0.26 0.26 93 1015.5
20260504032604 51 188 0.0 0.0 0.09 0.20 0.20 90 1015.9
20260504025604 52 179 0.0 0.0 0.02 0.13 0.13 88 1015.9
20260504022606 52 84 0.0 0.0 0.03 0.11 0.11 89 1015.9
20260504012605 52 142 1.0 1.0 0.05 0.09 0.09 85 1016.2
20260504005606 52 172 1.0 1.0 0.07 0.07 0.07 84 1016.2
20260504002605 53 169 4.0 4.0 0.04 0.04 0.04 80 1016.5
20260503235605 58 174 3.0 4.0 0.00 0.00 0.00 63 1016.2
20260503232605 60 177 3.0 3.0 0.00 0.00 0.00 53 1016.2